Location: Unspecified
(49.2170°N, 0.0000°E)
Time: 15:50:33
(UTC+00:00)

Envisat - Pass Details

Date: 04 December 2020
Orbit: 764 x 766 km, 98.1° (Epoch: 20 January)

Event Time Altitude Azimuth Distance (km) Brightness Sun altitude
Rises 18:04:33 0° 203° (SSW) 3,222 6.7 -19.0°
Reaches altitude 10° 18:07:20 10° 218° (SW) 2,301 6.2 -19.4°
Maximum altitude 18:11:16 23° 269° (W) 1,610 5.5 -20.0°
Drops below altitude 10° 18:15:15 10° 320° (NW) 2,315 5.8 -20.7°
Sets 18:18:03 0° 336° (NNW) 3,246 6.4 -21.1°
